Regional Weather Roundup
Issued by NWS

Home | Current Version | Previous Version | Graphics & Text | Print | Product List | Glossary Off
Versions: 1 2 3 4 5 6 7 8 9 10 11 12 13 14 15 16 17 18 19 20 21 22 23 24 25 26 27 28 29 30 31 32 33 34 35 36 37 38 39 40 41 42 43 44 45 46 47 48 49 50

000
ASUS43 KMKX 221500
RWRWI

WISCONSIN REGIONAL WEATHER ROUNDUP
NATIONAL WEATHER SERVICE MILWAUKEE/SULLIVAN WI
900 AM CST MON JAN 22 2018

NOTE: "FAIR" INDICATES FEW OR NO CLOUDS BELOW 12,000 FEET WITH NO
SIGNIFICANT WEATHER AND/OR OBSTRUCTIONS TO VISIBILITY.

WIZ001-002-006>008-014>016-023>028-221600-
NORTHWEST WISCONSIN

CITY           SKY/WX    TMP DP  RH WIND       PRES   REMARKS
SUPERIOR ARPT  CLOUDY    27  26  97 NE16G29   29.99F FOG     WCI  15
ASHLAND        CLOUDY    28  27  96 NE20G29   29.96F FOG     WCI  15
HAYWARD        CLOUDY    29  25  85 NE16G26   29.86F WCI  17
SIREN          CLOUDY    30  25  81 NE15G22   29.86F WCI  19
CUMBERLAND     CLOUDY    30  27  86 NE16G22   29.80F WCI  19
RICE LAKE      CLOUDY    31  28  86 N16G22    29.81F WCI  20
CHETEK         NOT AVBL
LADYSMITH      CLOUDY    32  28  85 NE18G26   29.81F WCI  21
EAU CLAIRE     LGT SNOW  34  29  82 NE15G23   29.74S WCI  24
MENOMONIE      CLOUDY    34  29  83 N12G17    29.76F WCI  25
NEW RICHMOND   CLOUDY    31  26  80 NE20      29.78F WCI  19
OSCEOLA        CLOUDY    32  27  81 NE16G22   29.83F WCI  21
$$

WIZ003>005-009-010-017-018-221600-
NORTH CENTRAL WISCONSIN

CITY           SKY/WX    TMP DP  RH WIND       PRES   REMARKS
MANITOWISH WTR CLOUDY    27  27 100 NE15G23   29.86F WCI  15
ARBOR VITAE    CLOUDY    32  30  92 NE10G17   29.84F WCI  23
WOODRUFF       CLOUDY    32  30  92 NE10G17   29.84F WCI  23
RHINELANDER    CLOUDY    31  29  92 E15G26    29.81F WCI  20
EAGLE RIVER    CLOUDY    29  29  99 NE13G26   29.84F WCI  19
LAND O LAKES   CLOUDY    28  28  99 NE10      29.89F FOG     WCI  19
PHILLIPS       CLOUDY    30  28  95 NE14G22   29.81F WCI  19
TOMAHAWK       CLOUDY    31  28  88 NE12G20   29.81S WCI  22
MEDFORD        LGT SNOW  32  29  88 NE17G25   29.73F WCI  21
MERRILL        FLURRIES  33  30  90 NE14G24   29.77S WCI  23
$$

WIZ029-030-035-036-043>047-221600-
CENTRAL WISCONSIN

CITY           SKY/WX    TMP DP  RH WIND       PRES   REMARKS
WAUSAU         LGT SNOW  33  31  92 NE10      29.73S VSB 1   WCI  25
MOSINEE        LGT SNOW  34  32  93 NE17G24   29.72F WCI  23
MARSHFIELD     LGT SNOW  34  32  93 NE17G25   29.69S FOG     WCI  23
STEVENS POINT  MIX PCPN  32  32 100 NE20G26   29.71F WCI  20
WAUPACA        DRIZZLE   36  33  90 NE10G22   29.72F WCI  28
WAUTOMA        LGT RAIN  34  32  92 NE18      29.66  WCI  23
WISC RAPIDS    RAIN      34  33  96 E14G23    29.69F FOG     WCI  25
CAMP DOUGLAS   LGT RAIN  35  35  99 NE14      29.63F FOG     WCI  25
$$

WIZ011>013-019>022-031-037>040-048>050-221600-
NORTHEAST WISCONSIN

CITY           SKY/WX    TMP DP  RH WIND       PRES   REMARKS
ANTIGO         LGT SNOW  31  30  96 NE24G30   29.76F WCI  18
SHAWANO        LGT SNOW  35  32  90 NE18G24   29.76F WCI  24
OCONTO         CLOUDY    33  32  98 NE15G23   29.80F WCI  22
STURGEON BAY   LGT SNOW  35  34  96 NE18G25   29.79F FOG     WCI  24
GREEN BAY      MIX PCPN  34  32  92 NE25G33   29.74F FOG     WCI  21
MANITOWOC      RAIN      36  35  96 NE13G23   29.73F FOG     WCI  27
APPLETON       LGT RAIN  34  34 100 NE18G31   29.70F WCI  23
CLINTONVILLE   LGT RAIN  32  32 100 NE16G26   29.74F WCI  21
OSHKOSH        LGT RAIN  35  34  96 NE15      29.69S FOG     WCI  25
$$

WIZ032>034-041-042-053>061-221600-
SOUTHWEST WISCONSIN

CITY           SKY/WX    TMP DP  RH WIND       PRES   REMARKS
LA CROSSE      LGT RAIN  38  34  85 N12G20    29.62F WCI  30
SPARTA         RAIN      34  33  96 NE12      29.66F WCI  25
VIROQUA        CLOUDY    34  34 100 NE17G25   29.58F WCI  24
BOSCOBEL       LGT RAIN  37  37 100 NE9       29.58S FOG     WCI  30
PRAIRIE DU CHI RAIN      37  34  89 NE9       29.56F WCI  30
PLATTEVILLE    CLOUDY    37  37 100 NE16      29.54F WCI  28
$$

WIZ056-057-062-063-064-067-068-221600-
SOUTH CENTRAL WISCONSIN

CITY           SKY/WX    TMP DP  RH WIND       PRES   REMARKS
REEDSBURG      CLOUDY    34  34 100 NE14G23   29.61F WCI  24
BARABOO/DELLS  CLOUDY    33  33  98 NE13G24   29.62F WCI  24
LONE ROCK      LGT RAIN  37  36  96 E12       29.59S VSB 1/2 WCI  29
MINERAL POINT  LGT RAIN  37  37 100 NE20      29.54F WCI  27
MADISON        CLOUDY    37  36  96 NE16G33   29.53F WCI  28
MIDDLETON      CLOUDY    38  38 100 N8        29.55F WCI  32
WATERTOWN      MIX PCPN  37  37 100 NE8       29.62R WCI  31
MONROE         CLOUDY    37  37 100 CALM      29.58R
JANESVILLE     CLOUDY    39  39 100 E23G29    29.52F WCI  29
$$

WIZ051-052-058>065-066-070>072-221600-
SOUTHEAST WISCONSIN

CITY           SKY/WX    TMP DP  RH WIND       PRES   REMARKS
MILWAUKEE      RAIN      38  38 100 N12       29.62F VSB 1/2 WCI  30
WAUKESHA       RAIN      36  36 100 NE15      29.63F FOG     WCI  26
MILWAUKEE/TIMM RAIN      36  34  93 NE15      29.64F WCI  26
RACINE         RAIN      40  40 100 E12       29.61F FOG     WCI  33
BURLINGTON     MIX PCPN  38  37  96 NE8       29.60S WCI  32
KENOSHA        LGT RAIN  43  42  97 E6        29.59S
FOND DU LAC    HVY RAIN  37  34  89 NE13G22   29.68F FOG     WCI  29
SHEBOYGAN      RAIN      36  36 100 NE21      29.68F FOG     WCI  25
WEST BEND      RAIN      36  36 100 NE15G23   29.65F WCI  26
JUNEAU         RAIN      36  35  97 NE13      29.65F WCI  27
$$

LSZ147-162-221600-
LAKE SUPERIOR

STATION/POSITION TIME  TEMP    WIND        PRES    WAVE
                       AIR SEA DIR/SP/G            HT/PER
                 (UTC) (F)     (DEG/KT/KT) (MB)    (FT/S)
DEVILS ISLAND    1400   26      50/ 22/ 24 1017.8F
SAXON HARBOR     1430   30      50/ 21/ 24 1014.2F
$$

LMZ867-665-643>646-221600-
LAKE MICHIGAN

STATION/POSITION TIME  TEMP    WIND        PRES    WAVE
                       AIR SEA DIR/SP/G            HT/PER
                 (UTC) (F)     (DEG/KT/KT) (MB)    (FT/S)
NORTHPORT PIER   1440   35      60/  3/  8 1011.5F
KEWAUNEE LAKESHO 1430   35      40/ 14/ 19 1007.7F
SHEBOYGAN LAKESH 1400   37      30/ 20/ 21 1006.6F
PORT WASHINGTON  1430   37      30/ 14/ 19 1005.8F
MILWAUKEE LAKESH 1440   37      20/ 17/ 19   N/A
KENOSHA   LAKESH 1400   40      90/ 19/ 21 1001.7
$$

TC  - TEMPERATURE IN CELSIUS
VSB - VISIBILITY IN STATUTE MILES
WCI - WIND CHILL INDEX
HX  - HEAT INDEX





USA.gov is the U.S. government's official web portal to all federal, state and local government web resources and services.